STARLINK-5645, 55429

Orbit data source: Space-Track

STARLINK-5645, 55429 is a payload satellite owned by SpaceX/Seattle (US) in LEO that was launched on Tue, 31 Jan 2023 UTC via an FALCON 9 launch vehicle from the Air Force Western Test Range (AFWTR). Payload-class satellites include a variety of spacecraft equipped with specific instruments for various scientific and technological missions. These include communications satellites like Starlink; space stations such as the ISS; scientific satellites like the Hubble; Earth observation satellites from companies like Planet Labs, Umbra, and HawkEye 360; GPS; miniature CubeSats for education and research; and military/defense satellites.

Loading next visibility...
Identifier
55429, 2023-014AQ
Orbit
LEO
Country
Flag of USUS
Related business
Manufacturer
SpaceX/Seattle
Mission
Operational Commercial Communications
Bus & Motor
STARLINK, Unknown motor
Mass
305 kg wet, ~290 kg dry
Launch date (UTC)
2023-01-31 (3 years ago)
Launch vehicle
FALCON 9
Launch site
Air Force Western Test Range (AFWTR)
Object type
Payload
Rocket body
Debris
Shape & HBR
Box + 1 Pan, 10.1 m
Radar Cross Section
13.562 m², Large (>1 m²)

Expand to show TLE details & history
Last TLE update: 2 days ago

TLE from 2 days ago
0 STARLINK-5645
1 55429U 23014AQ  26171.39463711 -.00000621  00000-0 -44262-4 0  9999
2 55429  69.9991 185.6093 0003464 268.3615  91.7147 14.98323879186941
Epoch: 2026-06-20T09:28Z
TLE epoch observation values (Epoch: 2026-06-20T09:28:16.646Z)
Latitude
-0.00004°
Longitude
134.93004°
Altitude
574.572 km
Speed
7.574 km/s
True Right ascension
12h 22m 26s
True Declination
0° 00' 00"
Sunlit
Object was in daylight at epoch
Visualization orbit readout
Latitude
Unknown
Longitude
Unknown
Altitude
Unknown
Speed
Unknown
Apparent Right ascension
Unknown
Apparent Declination
Unknown
Sunlit
N/A
Visualization observer readout
Local Sidereal Time
21:27:38
Azimuth
Unknown
Elevation
Unknown
Doppler factor
Unknown
Orbital elements
Apogee altitude
572.43 km
Perigee altitude
567.616 km
Semi-major axis
6,948.16 km
Eccentricity
0.00035
Inclination
69.9991°
RAAN
185.6093°
Arg. of periapsis
268.3615°
True anomaly
91.75438°
Mean anomaly
91.7147°
Eccentric anomaly
91.73454°
Mean motion
3.74747 °/min
Orbital period
96.06 mins
BSTAR
-0.000044262
Loading maneuver chart data...
Computing Atmospheric mass density...

Documentation

Showing up to 5 results
|